星链-33693 (STARLINK-33693)

导读 | 豆包AI

STARLINK-33693是美国太空探索技术公司(SpaceX)“星链”星座的卫星,于2025年3月31日发射,归属“星链”低轨互联网星座组网项目,旨在为全球范围内用户提供高速、低延迟的卫星互联网服务,覆盖偏远地区、海洋等传统网络难以触达的场景,是美国推进低轨卫星通信网络建设的组成部分。

基本信息
目录编号:
63409
目录名称:
STARLINK-33693
国际标识:
2025-065L
轨道中心:
EARTH
卫星名称:
星链-33693
卫星全名:
星链-33693 (STARLINK-33693)
卫星状态:
在轨 (已飞行420 天)
发射日期:
2025-03-31 UTC
国别 :
美国 (US)
星等 :
--
轨道信息
数据来源 国际轨道数据 AOE轨道数据
星历时间 2026-05-25T17:57:41+0800
7小时前
查看轨道信息
2026-05-22T23:00:00+0800
3天前
查看轨道信息
半长轴 6861.147km 6861.213km
偏心率 0.0002286 0.0001435
轨道倾角 43.003° 43.004°
近地点辐角 256.300° 265.764°
升交点赤经 33.804° 49.568°
平近点角 103.760° 212.986°
近地点 481.441km 482.091km
远地点 484.579km 484.061km
周期 94.266分钟 94.267分钟
每日圈数 15.275931 15.275713
详细信息
固有亮度:
5
最大亮度:
2.5
卫星平台:
Starlink V1.0
覆盖范围:
全球
运营商:
太空探索技术公司
运营商所在国:
美国
制造商(研发单位):
太空探索技术公司
制造商所在国:
美国
使用方式:
暂无
卫星简介
Starlink 计划是 SpaceX 推出的全球卫星互联网项目,通过发射低轨道卫星,为全球尤其是偏远地区提供高速、低延迟的互联网服务。自 2019 年起,Starlink 已部署数千颗卫星,旨在缩小全球数字鸿沟,推动互联网普及。该项目还为军事、航空等行业提供通信支持,带来广泛经济效益。
2D轨道图
3D轨道图
轨道高度分析图
轨道倾角分析图
轨道综合分析图
查看轨道综合分析图